Time,TemperatureF,DewpointF,PressureIn,WindDirection,WindDirectionDegrees,WindSpeedMPH,WindSpeedGustMPH,Humidity,HourlyPrecipIn,Conditions,Clouds,dailyrainin,SolarRadiationWatts/m^2,SoftwareType,DateUTC
2013-02-09 00:11:00,17.0,11.0,-100.00,SSE,162,9.0,22.0,77,0.00,,,0.01,0.000000,,2013-02-09 06:11:00,
2013-02-09 00:21:00,17.0,11.0,-100.00,SSE,162,9.0,22.0,77,0.00,,,0.01,0.000000,,2013-02-09 06:21:00,
2013-02-09 00:32:00,17.0,11.0,-100.00,SSE,162,9.0,22.0,77,0.00,,,0.01,0.000000,,2013-02-09 06:32:00,
2013-02-09 00:42:00,17.0,11.0,-100.00,SSE,162,9.0,22.0,77,0.00,,,0.01,0.000000,,2013-02-09 06:42:00,
2013-02-09 01:11:00,17.0,11.0,-100.00,SSE,162,8.0,30.0,77,0.00,,,0.01,0.000000,,2013-02-09 07:11:00,
2013-02-09 01:21:00,17.0,11.0,-100.00,SSE,162,8.0,30.0,77,0.00,,,0.01,0.000000,,2013-02-09 07:21:00,
2013-02-09 01:31:00,17.0,11.0,-100.00,SSE,162,8.0,30.0,77,0.00,,,0.01,0.000000,,2013-02-09 07:31:00,
2013-02-09 01:42:00,17.0,11.0,-100.00,SSE,162,8.0,30.0,77,0.00,,,0.01,0.000000,,2013-02-09 07:42:00,
2013-02-09 02:11:00,18.0,11.0,-100.00,SSE,153,8.0,26.0,73,0.00,,,0.01,0.000000,,2013-02-09 08:11:00,
2013-02-09 02:21:00,18.0,11.0,-100.00,SSE,153,8.0,26.0,73,0.00,,,0.01,0.000000,,2013-02-09 08:21:00,
2013-02-09 02:31:00,18.0,11.0,-100.00,SSE,153,8.0,26.0,73,0.00,,,0.01,0.000000,,2013-02-09 08:31:00,
2013-02-09 02:42:00,18.0,11.0,-100.00,SSE,153,8.0,26.0,73,0.00,,,0.01,0.000000,,2013-02-09 08:42:00,
2013-02-09 03:11:00,19.0,11.0,-100.00,SSE,165,7.0,24.0,70,0.00,,,0.01,0.000000,,2013-02-09 09:11:00,
2013-02-09 03:21:00,19.0,11.0,-100.00,SSE,165,7.0,24.0,70,0.00,,,0.01,0.000000,,2013-02-09 09:21:00,
2013-02-09 03:31:00,19.0,11.0,-100.00,SSE,165,7.0,24.0,70,0.00,,,0.01,0.000000,,2013-02-09 09:31:00,
2013-02-09 03:41:00,19.0,11.0,-100.00,SSE,165,7.0,24.0,70,0.00,,,0.01,0.000000,,2013-02-09 09:41:00,
2013-02-09 04:11:00,19.0,11.0,-100.00,South,176,7.0,16.0,71,0.00,,,0.01,0.000000,,2013-02-09 10:11:00,
2013-02-09 04:21:00,19.0,11.0,-100.00,South,176,7.0,16.0,71,0.00,,,0.01,0.000000,,2013-02-09 10:21:00,
2013-02-09 04:32:00,19.0,11.0,-100.00,South,176,7.0,16.0,71,0.00,,,0.01,0.000000,,2013-02-09 10:32:00,
2013-02-09 04:42:00,19.0,11.0,-100.00,South,176,7.0,16.0,71,0.00,,,0.01,0.000000,,2013-02-09 10:42:00,
2013-02-09 05:11:00,19.0,11.0,-100.00,South,179,7.0,19.0,72,0.00,,,0.01,0.000000,,2013-02-09 11:11:00,
2013-02-09 05:22:00,19.0,11.0,-100.00,South,179,7.0,19.0,72,0.00,,,0.01,0.000000,,2013-02-09 11:22:00,
2013-02-09 05:32:00,19.0,11.0,-100.00,South,179,7.0,19.0,72,0.00,,,0.01,0.000000,,2013-02-09 11:32:00,
2013-02-09 05:41:00,19.0,11.0,-100.00,South,179,7.0,19.0,72,0.00,,,0.01,0.000000,,2013-02-09 11:41:00,
2013-02-09 06:11:00,19.0,12.0,-100.00,South,182,10.0,26.0,74,0.00,,,0.01,0.000000,,2013-02-09 12:11:00,
2013-02-09 06:21:00,19.0,12.0,-100.00,South,182,10.0,26.0,74,0.00,,,0.01,0.000000,,2013-02-09 12:21:00,
2013-02-09 06:32:00,19.0,12.0,-100.00,South,182,10.0,26.0,74,0.00,,,0.01,0.000000,,2013-02-09 12:32:00,
2013-02-09 06:42:00,19.0,12.0,-100.00,South,182,10.0,26.0,74,0.00,,,0.01,0.000000,,2013-02-09 12:42:00,
2013-02-09 07:11:00,19.0,13.0,-100.00,South,189,10.0,22.0,78,0.00,,,0.01,0.000000,,2013-02-09 13:11:00,
2013-02-09 07:22:00,19.0,13.0,-100.00,South,189,10.0,22.0,78,0.00,,,0.01,0.000000,,2013-02-09 13:22:00,
2013-02-09 07:32:00,19.0,13.0,-100.00,South,189,10.0,22.0,78,0.00,,,0.01,0.000000,,2013-02-09 13:32:00,
2013-02-09 07:42:00,19.0,13.0,-100.00,South,189,10.0,22.0,78,0.00,,,0.01,0.000000,,2013-02-09 13:42:00,
2013-02-09 08:11:00,20.0,15.0,-100.00,SSW,198,9.0,20.0,81,0.00,,,0.01,0.000000,,2013-02-09 14:11:00,
2013-02-09 08:21:00,20.0,15.0,-100.00,SSW,198,9.0,20.0,81,0.00,,,0.01,0.000000,,2013-02-09 14:21:00,
2013-02-09 08:32:00,20.0,15.0,-100.00,SSW,198,9.0,20.0,81,0.00,,,0.01,0.000000,,2013-02-09 14:32:00,
2013-02-09 08:42:00,20.0,15.0,-100.00,SSW,198,9.0,20.0,81,0.00,,,0.01,0.000000,,2013-02-09 14:42:00,
2013-02-09 09:11:00,21.0,16.0,-100.00,South,187,9.0,21.0,81,0.00,,,0.01,3.000000,,2013-02-09 15:11:00,
2013-02-09 09:21:00,21.0,16.0,-100.00,South,187,9.0,21.0,81,0.00,,,0.01,3.000000,,2013-02-09 15:21:00,
2013-02-09 09:32:00,21.0,16.0,-100.00,South,187,9.0,21.0,81,0.00,,,0.01,3.000000,,2013-02-09 15:32:00,
2013-02-09 09:42:00,21.0,16.0,-100.00,South,187,9.0,21.0,81,0.00,,,0.01,3.000000,,2013-02-09 15:42:00,
2013-02-09 10:11:00,22.0,17.0,-100.00,SSW,201,10.0,25.0,82,0.00,,,0.01,5.000000,,2013-02-09 16:11:00,
2013-02-09 10:22:00,22.0,17.0,-100.00,SSW,201,10.0,25.0,82,0.00,,,0.01,5.000000,,2013-02-09 16:22:00,
2013-02-09 10:31:00,22.0,17.0,-100.00,SSW,201,10.0,25.0,82,0.00,,,0.01,5.000000,,2013-02-09 16:31:00,
2013-02-09 10:42:00,22.0,17.0,-100.00,SSW,201,10.0,25.0,82,0.00,,,0.01,5.000000,,2013-02-09 16:42:00,
2013-02-09 11:11:00,22.0,18.0,-100.00,SSW,202,11.0,26.0,86,0.00,,,0.01,8.000000,,2013-02-09 17:11:00,
2013-02-09 11:21:00,22.0,18.0,-100.00,SSW,202,11.0,26.0,86,0.00,,,0.01,8.000000,,2013-02-09 17:21:00,
2013-02-09 11:32:00,22.0,18.0,-100.00,SSW,202,11.0,26.0,86,0.00,,,0.01,8.000000,,2013-02-09 17:32:00,
2013-02-09 11:42:00,22.0,18.0,-100.00,SSW,202,11.0,26.0,86,0.00,,,0.01,8.000000,,2013-02-09 17:42:00,
2013-02-09 12:12:00,23.0,20.0,-100.00,South,190,9.0,20.0,88,0.00,,,0.01,12.000000,,2013-02-09 18:12:00,
2013-02-09 12:23:00,23.0,20.0,-100.00,South,190,9.0,20.0,88,0.00,,,0.01,12.000000,,2013-02-09 18:23:00,
2013-02-09 12:32:00,23.0,20.0,-100.00,South,190,9.0,20.0,88,0.00,,,0.01,12.000000,,2013-02-09 18:32:00,
2013-02-09 12:42:00,23.0,20.0,-100.00,South,190,9.0,20.0,88,0.00,,,0.01,12.000000,,2013-02-09 18:42:00,
2013-02-09 13:11:00,24.0,21.0,-100.00,SSW,200,8.0,21.0,89,0.00,,,0.01,11.000000,,2013-02-09 19:11:00,
2013-02-09 13:22:00,24.0,21.0,-100.00,SSW,200,8.0,21.0,89,0.00,,,0.01,11.000000,,2013-02-09 19:22:00,
2013-02-09 13:32:00,24.0,21.0,-100.00,SSW,200,8.0,21.0,89,0.00,,,0.01,11.000000,,2013-02-09 19:32:00,
2013-02-09 13:42:00,24.0,21.0,-100.00,SSW,200,8.0,21.0,89,0.00,,,0.01,11.000000,,2013-02-09 19:42:00,
2013-02-09 14:11:00,25.0,22.0,-100.00,SSW,198,7.0,18.0,89,0.00,,,0.01,10.000000,,2013-02-09 20:11:00,
2013-02-09 14:21:00,25.0,22.0,-100.00,SSW,198,7.0,18.0,89,0.00,,,0.01,10.000000,,2013-02-09 20:21:00,
2013-02-09 14:32:00,25.0,22.0,-100.00,SSW,198,7.0,18.0,89,0.00,,,0.01,10.000000,,2013-02-09 20:32:00,
2013-02-09 14:42:00,25.0,22.0,-100.00,SSW,198,7.0,18.0,89,0.00,,,0.01,10.000000,,2013-02-09 20:42:00,
2013-02-09 15:11:00,26.0,23.0,-100.00,SSW,201,8.0,18.0,90,0.00,,,0.00,9.000000,,2013-02-09 21:11:00,
2013-02-09 15:21:00,26.0,23.0,-100.00,SSW,201,8.0,18.0,90,0.00,,,0.00,9.000000,,2013-02-09 21:21:00,
2013-02-09 15:32:00,26.0,23.0,-100.00,SSW,201,8.0,18.0,90,0.00,,,0.00,9.000000,,2013-02-09 21:32:00,
2013-02-09 15:42:00,26.0,23.0,-100.00,SSW,201,8.0,18.0,90,0.00,,,0.00,9.000000,,2013-02-09 21:42:00,
2013-02-09 16:11:00,26.0,24.0,-100.00,SSW,192,5.0,16.0,91,0.00,,,0.00,5.000000,,2013-02-09 22:11:00,
2013-02-09 16:21:00,26.0,24.0,-100.00,SSW,192,5.0,16.0,91,0.00,,,0.00,5.000000,,2013-02-09 22:21:00,
2013-02-09 16:32:00,26.0,24.0,-100.00,SSW,192,5.0,16.0,91,0.00,,,0.00,5.000000,,2013-02-09 22:32:00,
2013-02-09 16:42:00,26.0,24.0,-100.00,SSW,192,5.0,16.0,91,0.00,,,0.00,5.000000,,2013-02-09 22:42:00,
2013-02-09 17:11:00,26.0,24.0,-100.00,South,187,3.0,13.0,92,0.00,,,0.00,3.000000,,2013-02-09 23:11:00,
2013-02-09 17:21:00,26.0,24.0,-100.00,South,187,3.0,13.0,92,0.00,,,0.00,3.000000,,2013-02-09 23:21:00,
2013-02-09 17:32:00,26.0,24.0,-100.00,South,187,3.0,13.0,92,0.00,,,0.00,3.000000,,2013-02-09 23:32:00,
2013-02-09 17:42:00,26.0,24.0,-100.00,South,187,3.0,13.0,92,0.00,,,0.00,3.000000,,2013-02-09 23:42:00,
2013-02-09 18:12:00,26.0,24.0,-100.00,South,191,4.0,10.0,93,0.00,,,0.00,0.000000,,2013-02-10 00:12:00,
2013-02-09 18:22:00,26.0,24.0,-100.00,South,191,4.0,10.0,93,0.00,,,0.00,0.000000,,2013-02-10 00:22:00,
2013-02-09 18:32:00,26.0,24.0,-100.00,South,191,4.0,10.0,93,0.00,,,0.00,0.000000,,2013-02-10 00:32:00,
2013-02-09 18:42:00,26.0,24.0,-100.00,South,191,4.0,10.0,93,0.00,,,0.00,0.000000,,2013-02-10 00:42:00,
2013-02-09 19:12:00,26.0,25.0,-100.00,South,184,3.0,9.0,94,0.00,,,0.00,0.000000,,2013-02-10 01:12:00,
2013-02-09 19:21:00,26.0,25.0,-100.00,South,184,3.0,9.0,94,0.00,,,0.00,0.000000,,2013-02-10 01:21:00,
2013-02-09 19:32:00,26.0,25.0,-100.00,South,184,3.0,9.0,94,0.00,,,0.00,0.000000,,2013-02-10 01:32:00,
2013-02-09 19:42:00,26.0,25.0,-100.00,South,184,3.0,9.0,94,0.00,,,0.00,0.000000,,2013-02-10 01:42:00,
2013-02-09 20:11:00,26.0,25.0,-100.00,South,180,3.0,9.0,94,0.00,,,0.00,0.000000,,2013-02-10 02:11:00,
2013-02-09 20:22:00,26.0,25.0,-100.00,South,180,3.0,9.0,94,0.00,,,0.00,0.000000,,2013-02-10 02:22:00,
2013-02-09 20:32:00,26.0,25.0,-100.00,South,180,3.0,9.0,94,0.00,,,0.00,0.000000,,2013-02-10 02:32:00,
2013-02-09 20:42:00,26.0,25.0,-100.00,South,180,3.0,9.0,94,0.00,,,0.00,0.000000,,2013-02-10 02:42:00,
2013-02-09 21:11:00,26.0,25.0,-100.00,SSW,194,3.0,9.0,94,0.00,,,0.00,0.000000,,2013-02-10 03:11:00,
2013-02-09 21:21:00,26.0,25.0,-100.00,SSW,194,3.0,9.0,94,0.00,,,0.00,0.000000,,2013-02-10 03:21:00,
2013-02-09 21:32:00,26.0,25.0,-100.00,SSW,194,3.0,9.0,94,0.00,,,0.00,0.000000,,2013-02-10 03:32:00,
2013-02-09 21:41:00,26.0,25.0,-100.00,SSW,194,3.0,9.0,94,0.00,,,0.00,0.000000,,2013-02-10 03:41:00,
2013-02-09 22:11:00,26.0,25.0,-100.00,South,189,1.0,8.0,94,0.00,,,0.00,0.000000,,2013-02-10 04:11:00,
2013-02-09 22:21:00,26.0,25.0,-100.00,South,189,1.0,8.0,94,0.00,,,0.00,0.000000,,2013-02-10 04:21:00,
2013-02-09 22:32:00,26.0,25.0,-100.00,South,189,1.0,8.0,94,0.00,,,0.00,0.000000,,2013-02-10 04:32:00,
2013-02-09 22:42:00,26.0,25.0,-100.00,South,189,1.0,8.0,94,0.00,,,0.00,0.000000,,2013-02-10 04:42:00,
2013-02-09 23:11:00,26.0,24.0,-100.00,South,179,2.0,6.0,93,0.00,,,0.00,0.000000,,2013-02-10 05:11:00,
2013-02-09 23:22:00,26.0,24.0,-100.00,South,179,2.0,6.0,93,0.00,,,0.00,0.000000,,2013-02-10 05:22:00,
2013-02-09 23:31:00,26.0,24.0,-100.00,South,179,2.0,6.0,93,0.00,,,0.00,0.000000,,2013-02-10 05:31:00,
2013-02-09 23:41:00,26.0,24.0,-100.00,South,179,2.0,6.0,93,0.00,,,0.00,0.000000,,2013-02-10 05:41:00,